Check out our new BloomSky Weather System.

Active alerts


No alerts


Thunder radar  blitzortung!


Rain radar more information rain snow radar


Visit our other weather sites:

Template documentation
and downloads

And another site



Weather Underground History page Text

Daily Summary for September 2, 2017 Units:  English    Metric   Both
« Previous Day
Next Day »
Daily Weekly Monthly Yearly Custom
  High: Low: Average:
Temperature: 94.3 °F 71.4 °F 82.2 °F
Dew Point: 79.2 °F 68.5 °F 72.7 °F
Humidity: 99 % 48 % 76 %
Wind Speed: 6.0 mph 0.0 mph 0.6 mph
Wind Gust: 6.0 mph - -
Wind:- - SSE
Pressure: 30.06 in 29.97 in -
Precipitation: 0.00 in    
Historical Graphs
 
 
Tabular Data for September 2, 2017
Time Temperature Dew Point Pressure Wind Wind Speed Wind Gust Humidity Rainfall Rate (Hourly)
00:02 76.8 °F 73.9 °F 30.00 in Calm     91 % 0.00 in
00:06 76.6 °F 73.8 °F 30.00 in Calm     91 % 0.00 in
00:12 76.5 °F 73.6 °F 30.00 in Calm     91 % 0.00 in
00:17 76.3 °F 73.4 °F 30.00 in Calm     91 % 0.00 in
00:22 76.1 °F 73.6 °F 30.00 in Calm     92 % 0.00 in
00:27 76.1 °F 73.6 °F 30.00 in Calm     92 % 0.00 in
00:32 75.9 °F 73.4 °F 30.00 in Calm     92 % 0.00 in
00:37 75.9 °F 73.8 °F 30.00 in Calm     93 % 0.00 in
00:42 75.9 °F 73.8 °F 30.00 in Calm     93 % 0.00 in
00:47 75.7 °F 73.6 °F 30.00 in Calm     93 % 0.00 in
00:52 75.7 °F 73.6 °F 30.00 in Calm     93 % 0.00 in
00:57 75.7 °F 73.6 °F 30.00 in Calm     93 % 0.00 in
01:02 75.6 °F 73.4 °F 30.00 in Calm     93 % 0.00 in
01:07 75.6 °F 73.4 °F 30.00 in Calm     93 % 0.00 in
01:12 75.6 °F 73.4 °F 29.99 in Calm     93 % 0.00 in
01:17 75.4 °F 73.2 °F 29.99 in Calm     93 % 0.00 in
01:22 75.0 °F 72.9 °F 29.99 in Calm     93 % 0.00 in
01:27 75.0 °F 73.2 °F 29.99 in Calm     94 % 0.00 in
01:32 75.0 °F 73.2 °F 29.99 in Calm     94 % 0.00 in
01:37 74.8 °F 73.0 °F 29.99 in Calm     94 % 0.00 in
01:42 74.7 °F 72.9 °F 29.99 in Calm     94 % 0.00 in
01:47 74.8 °F 73.2 °F 29.98 in Calm     95 % 0.00 in
01:52 74.8 °F 73.2 °F 29.98 in Calm     95 % 0.00 in
01:56 74.7 °F 72.9 °F 29.98 in Calm     94 % 0.00 in
02:02 74.5 °F 72.7 °F 29.98 in Calm     94 % 0.00 in
02:07 74.3 °F 72.5 °F 29.98 in Calm     94 % 0.00 in
02:12 74.1 °F 72.7 °F 29.98 in Calm     95 % 0.00 in
02:17 74.1 °F 72.7 °F 29.98 in Calm     95 % 0.00 in
02:22 73.9 °F 72.5 °F 29.98 in Calm     95 % 0.00 in
02:27 73.9 °F 72.7 °F 29.98 in Calm     96 % 0.00 in
02:32 73.8 °F 72.3 °F 29.98 in Calm     95 % 0.00 in
02:37 73.6 °F 72.3 °F 29.98 in Calm     96 % 0.00 in
02:42 73.2 °F 72.0 °F 29.98 in Calm     96 % 0.00 in
02:47 73.2 °F 72.0 °F 29.98 in Calm     96 % 0.00 in
02:52 73.0 °F 71.8 °F 29.98 in Calm     96 % 0.00 in
02:57 73.0 °F 71.8 °F 29.98 in Calm     96 % 0.00 in
03:02 72.9 °F 71.6 °F 29.98 in Calm     96 % 0.00 in
03:07 72.9 °F 71.6 °F 29.98 in Calm     96 % 0.00 in
03:12 72.7 °F 71.8 °F 29.97 in Calm     97 % 0.00 in
03:17 72.9 °F 72.0 °F 29.97 in Calm     97 % 0.00 in
03:22 72.9 °F 72.0 °F 29.98 in Calm     97 % 0.00 in
03:27 72.9 °F 72.0 °F 29.98 in Calm     97 % 0.00 in
03:32 72.7 °F 71.8 °F 29.98 in Calm     97 % 0.00 in
03:37 72.3 °F 71.4 °F 29.98 in Calm     97 % 0.00 in
03:42 72.3 °F 71.4 °F 29.98 in Calm     97 % 0.00 in
03:47 72.1 °F 71.2 °F 29.98 in Calm     97 % 0.00 in
03:52 72.1 °F 71.6 °F 29.98 in Calm     98 % 0.00 in
03:57 72.3 °F 71.8 °F 29.98 in Calm     98 % 0.00 in
04:02 72.3 °F 71.8 °F 29.98 in Calm     98 % 0.00 in
04:07 72.5 °F 72.0 °F 29.98 in Calm     98 % 0.00 in
04:12 72.5 °F 72.0 °F 29.98 in Calm     98 % 0.00 in
04:17 72.5 °F 72.0 °F 29.98 in Calm     98 % 0.00 in
04:19 72.5 °F 72.0 °F 29.98 in Calm     98 % 0.00 in
04:24 72.7 °F 72.1 °F 29.98 in Calm     98 % 0.00 in
04:29 72.7 °F 72.1 °F 29.98 in Calm     98 % 0.00 in
04:34 72.5 °F 72.0 °F 29.98 in Calm     98 % 0.00 in
04:39 72.3 °F 71.8 °F 29.98 in Calm     98 % 0.00 in
04:44 72.3 °F 71.8 °F 29.98 in Calm     98 % 0.00 in
04:49 72.1 °F 71.6 °F 29.98 in Calm     98 % 0.00 in
04:54 72.3 °F 71.8 °F 29.98 in Calm     98 % 0.00 in
04:59 72.1 °F 71.6 °F 29.98 in Calm     98 % 0.00 in
05:04 72.1 °F 71.6 °F 29.98 in Calm     98 % 0.00 in
05:09 72.0 °F 71.4 °F 29.99 in Calm     98 % 0.00 in
05:14 72.0 °F 71.4 °F 29.99 in Calm     98 % 0.00 in
05:19 72.0 °F 71.4 °F 29.99 in Calm     98 % 0.00 in
05:24 72.0 °F 71.4 °F 29.99 in Calm     98 % 0.00 in
05:30 71.8 °F 71.2 °F 29.99 in Calm     98 % 0.00 in
05:35 71.8 °F 71.2 °F 29.99 in Calm     98 % 0.00 in
05:40 71.6 °F 71.1 °F 29.99 in Calm     98 % 0.00 in
05:45 71.4 °F 70.9 °F 29.99 in Calm     98 % 0.00 in
05:50 71.4 °F 70.9 °F 29.99 in Calm     98 % 0.00 in
05:55 71.6 °F 71.2 °F 29.99 in Calm     99 % 0.00 in
06:00 71.8 °F 71.4 °F 29.99 in Calm     99 % 0.00 in
06:05 71.8 °F 71.4 °F 29.99 in Calm     99 % 0.00 in
06:10 71.8 °F 71.4 °F 30.00 in Calm     99 % 0.00 in
06:11 71.8 °F 71.4 °F 30.00 in Calm     99 % 0.00 in
06:16 71.8 °F 71.4 °F 30.00 in Calm     99 % 0.00 in
06:21 71.8 °F 71.4 °F 30.00 in Calm     99 % 0.00 in
06:26 71.8 °F 71.4 °F 30.00 in Calm     99 % 0.00 in
06:31 71.6 °F 71.2 °F 30.00 in Calm     99 % 0.00 in
06:36 71.6 °F 71.2 °F 30.01 in Calm     99 % 0.00 in
06:41 71.6 °F 71.2 °F 30.01 in Calm     99 % 0.00 in
06:46 71.4 °F 71.1 °F 30.01 in Calm     99 % 0.00 in
06:51 71.4 °F 71.1 °F 30.01 in Calm     99 % 0.00 in
06:56 71.6 °F 71.2 °F 30.01 in Calm     99 % 0.00 in
07:01 71.6 °F 71.2 °F 30.01 in Calm     99 % 0.00 in
07:06 71.4 °F 71.1 °F 30.01 in Calm     99 % 0.00 in
07:11 71.6 °F 71.2 °F 30.01 in Calm     99 % 0.00 in
07:16 71.6 °F 71.2 °F 30.01 in Calm     99 % 0.00 in
07:21 71.6 °F 71.2 °F 30.01 in Calm     99 % 0.00 in
07:26 71.6 °F 71.2 °F 30.02 in Calm     99 % 0.00 in
07:31 71.6 °F 71.2 °F 30.02 in Calm     99 % 0.00 in
07:36 71.8 °F 71.4 °F 30.02 in Calm     99 % 0.00 in
07:41 72.0 °F 71.6 °F 30.02 in Calm     99 % 0.00 in
07:46 72.1 °F 71.8 °F 30.02 in Calm     99 % 0.00 in
07:48 72.3 °F 72.0 °F 30.02 in Calm     99 % 0.00 in
07:53 72.7 °F 72.3 °F 30.03 in Calm     99 % 0.00 in
07:58 73.2 °F 72.9 °F 30.03 in Calm     99 % 0.00 in
08:03 73.9 °F 73.6 °F 30.03 in Calm     99 % 0.00 in
08:08 74.7 °F 74.3 °F 30.03 in Calm     99 % 0.00 in
08:13 75.2 °F 74.8 °F 30.03 in Calm     99 % 0.00 in
08:18 76.1 °F 75.7 °F 30.03 in Calm     99 % 0.00 in
08:23 77.2 °F 76.6 °F 30.03 in Calm     98 % 0.00 in
08:28 78.1 °F 77.5 °F 30.03 in Calm     98 % 0.00 in
08:33 79.0 °F 77.7 °F 30.04 in Calm     96 % 0.00 in
08:38 79.9 °F 78.1 °F 30.04 in Calm     94 % 0.00 in
08:43 80.6 °F 77.4 °F 30.04 in Calm     90 % 0.00 in
08:48 81.3 °F 78.4 °F 30.04 in Calm     91 % 0.00 in
08:53 82.0 °F 78.1 °F 30.04 in Calm   1.0 mph 88 % 0.00 in
08:58 82.8 °F 77.7 °F 30.04 in Calm   1.0 mph 85 % 0.00 in
09:03 83.1 °F 78.1 °F 30.04 in Calm   1.0 mph 85 % 0.00 in
09:08 83.5 °F 78.4 °F 30.05 in SSW 1.0 mph 2.0 mph 85 % 0.00 in
09:13 83.7 °F 78.6 °F 30.04 in Calm   2.0 mph 85 % 0.00 in
09:18 83.7 °F 77.9 °F 30.05 in Calm   2.0 mph 83 % 0.00 in
09:23 83.7 °F 77.5 °F 30.05 in Calm   2.0 mph 82 % 0.00 in
09:28 83.1 °F 77.7 °F 30.05 in WSW 2.0 mph 4.0 mph 84 % 0.00 in
09:33 83.5 °F 78.4 °F 30.05 in SSW 2.0 mph 4.0 mph 85 % 0.00 in
09:38 84.4 °F 79.0 °F 30.05 in Calm   4.0 mph 84 % 0.00 in
09:43 84.0 °F 77.2 °F 30.05 in NW 2.0 mph 3.0 mph 80 % 0.00 in
09:48 83.1 °F 77.4 °F 30.05 in North 1.0 mph 5.0 mph 83 % 0.00 in
09:53 83.3 °F 77.9 °F 30.05 in Calm   5.0 mph 84 % 0.00 in
09:54 83.5 °F 78.1 °F 30.05 in Calm   5.0 mph 84 % 0.00 in
09:59 84.7 °F 79.0 °F 30.05 in Calm   5.0 mph 83 % 0.00 in
10:04 85.5 °F 78.3 °F 30.06 in NNW 1.0 mph 3.0 mph 79 % 0.00 in
10:09 85.6 °F 79.2 °F 30.06 in WSW 1.0 mph 4.0 mph 81 % 0.00 in
10:14 86.2 °F 78.4 °F 30.06 in Calm   5.0 mph 78 % 0.00 in
10:19 86.4 °F 77.5 °F 30.06 in Calm   5.0 mph 75 % 0.00 in
10:24 85.5 °F 77.4 °F 30.06 in Calm   5.0 mph 77 % 0.00 in
10:29 85.6 °F 77.5 °F 30.06 in WNW 3.0 mph 5.0 mph 77 % 0.00 in
10:34 85.5 °F 76.6 °F 30.06 in NNW 1.0 mph 5.0 mph 75 % 0.00 in
10:39 85.6 °F 77.2 °F 30.06 in SW 1.0 mph 5.0 mph 76 % 0.00 in
10:44 86.7 °F 76.6 °F 30.06 in SE 1.0 mph 5.0 mph 72 % 0.00 in
10:49 87.6 °F 75.4 °F 30.06 in Calm   3.0 mph 67 % 0.00 in
10:54 87.3 °F 75.9 °F 30.06 in NW 2.0 mph 4.0 mph 69 % 0.00 in
10:59 87.1 °F 76.1 °F 30.06 in Calm   4.0 mph 70 % 0.00 in
11:04 87.6 °F 75.7 °F 30.06 in West 1.0 mph 4.0 mph 68 % 0.00 in
11:09 88.5 °F 76.6 °F 30.06 in ESE 1.0 mph 4.0 mph 68 % 0.00 in
11:14 88.5 °F 75.2 °F 30.06 in SE 3.0 mph 3.0 mph 65 % 0.00 in
11:19 88.3 °F 74.7 °F 30.06 in SSE 4.0 mph 4.0 mph 64 % 0.00 in
11:24 88.7 °F 75.4 °F 30.06 in ESE 2.0 mph 5.0 mph 65 % 0.00 in
11:29 89.1 °F 74.3 °F 30.06 in SSE 2.0 mph 5.0 mph 62 % 0.00 in
11:34 89.2 °F 73.9 °F 30.06 in Calm   5.0 mph 61 % 0.00 in
11:39 89.8 °F 74.5 °F 30.06 in Calm   5.0 mph 61 % 0.00 in
11:45 90.1 °F 75.4 °F 30.06 in NNW 2.0 mph 5.0 mph 62 % 0.00 in
11:50 90.5 °F 76.1 °F 30.05 in Calm   4.0 mph 63 % 0.00 in
11:55 91.4 °F 75.0 °F 30.05 in South 3.0 mph 4.0 mph 59 % 0.00 in
12:00 91.2 °F 75.4 °F 30.05 in WNW 1.0 mph 3.0 mph 60 % 0.00 in
12:05 90.0 °F 74.1 °F 30.05 in NE 1.0 mph 4.0 mph 60 % 0.00 in
12:10 90.1 °F 74.3 °F 30.05 in NW 1.0 mph 6.0 mph 60 % 0.00 in
12:15 89.4 °F 73.8 °F 30.05 in NNW 4.0 mph 6.0 mph 60 % 0.00 in
12:20 89.2 °F 75.0 °F 30.05 in West 2.0 mph 6.0 mph 63 % 0.00 in
12:25 89.8 °F 75.0 °F 30.05 in NNW 1.0 mph 5.0 mph 62 % 0.00 in
12:30 90.0 °F 75.7 °F 30.05 in Calm   4.0 mph 63 % 0.00 in
12:35 91.2 °F 75.4 °F 30.05 in SSW 1.0 mph 3.0 mph 60 % 0.00 in
12:40 92.5 °F 76.1 °F 30.05 in Calm   3.0 mph 59 % 0.00 in
12:45 93.4 °F 74.8 °F 30.04 in SSE 2.0 mph 4.0 mph 55 % 0.00 in
12:50 93.9 °F 75.2 °F 30.04 in ESE 2.0 mph 4.0 mph 55 % 0.00 in
12:55 94.3 °F 75.6 °F 30.04 in NNW 3.0 mph 4.0 mph 55 % 0.00 in
13:00 93.4 °F 74.3 °F 30.04 in NNE 6.0 mph 6.0 mph 54 % 0.00 in
13:05 91.8 °F 72.7 °F 30.04 in NNW 2.0 mph 6.0 mph 54 % 0.00 in
13:10 90.3 °F 73.6 °F 30.04 in Calm   6.0 mph 58 % 0.00 in
13:15 90.1 °F 72.9 °F 30.04 in NNW 2.0 mph 6.0 mph 57 % 0.00 in
13:20 90.0 °F 72.7 °F 30.04 in ENE 2.0 mph 5.0 mph 57 % 0.00 in
13:25 89.8 °F 73.0 °F 30.03 in ESE 3.0 mph 3.0 mph 58 % 0.00 in
13:30 89.8 °F 74.1 °F 30.03 in South 1.0 mph 4.0 mph 60 % 0.00 in
13:35 90.3 °F 74.5 °F 30.03 in Calm   4.0 mph 60 % 0.00 in
13:40 90.7 °F 73.4 °F 30.03 in Calm   4.0 mph 57 % 0.00 in
13:45 90.0 °F 71.6 °F 30.03 in Calm   4.0 mph 55 % 0.00 in
13:50 90.0 °F 72.7 °F 30.03 in ENE 2.0 mph 4.0 mph 57 % 0.00 in
13:55 90.3 °F 73.0 °F 30.03 in ENE 1.0 mph 4.0 mph 57 % 0.00 in
14:00 90.9 °F 72.5 °F 30.02 in SE 4.0 mph 6.0 mph 55 % 0.00 in
14:05 90.9 °F 72.0 °F 30.02 in ENE 1.0 mph 6.0 mph 54 % 0.00 in
14:10 91.6 °F 72.5 °F 30.02 in Calm   6.0 mph 54 % 0.00 in
14:15 91.9 °F 72.3 °F 30.02 in Calm   4.0 mph 53 % 0.00 in
14:20 91.6 °F 71.4 °F 30.02 in Calm   4.0 mph 52 % 0.00 in
14:25 91.9 °F 71.8 °F 30.01 in NNW 2.0 mph 4.0 mph 52 % 0.00 in
14:30 91.6 °F 70.3 °F 30.01 in Calm   4.0 mph 50 % 0.00 in
14:35 91.0 °F 69.8 °F 30.01 in NNW 3.0 mph 4.0 mph 50 % 0.00 in
14:40 91.0 °F 72.1 °F 30.01 in East 2.0 mph 4.0 mph 54 % 0.00 in
14:45 91.6 °F 72.5 °F 30.01 in NNE 1.0 mph 4.0 mph 54 % 0.00 in
14:50 91.9 °F 71.2 °F 30.00 in Calm   6.0 mph 51 % 0.00 in
14:56 91.9 °F 71.8 °F 30.00 in Calm   6.0 mph 52 % 0.00 in
15:01 92.1 °F 72.0 °F 30.00 in Calm   6.0 mph 52 % 0.00 in
15:06 92.7 °F 72.5 °F 30.00 in Calm   3.0 mph 52 % 0.00 in
15:11 93.6 °F 72.7 °F 30.00 in NW 2.0 mph 3.0 mph 51 % 0.00 in
15:16 93.6 °F 71.6 °F 29.99 in Calm   3.0 mph 49 % 0.00 in
15:21 93.0 °F 71.1 °F 29.99 in SE 3.0 mph 5.0 mph 49 % 0.00 in
15:26 91.9 °F 71.8 °F 29.99 in ENE 2.0 mph 5.0 mph 52 % 0.00 in
15:31 91.4 °F 71.2 °F 29.99 in Calm   5.0 mph 52 % 0.00 in
15:36 91.0 °F 71.6 °F 29.99 in Calm   5.0 mph 53 % 0.00 in
15:41 91.8 °F 72.7 °F 29.99 in SE 2.0 mph 4.0 mph 54 % 0.00 in
15:46 92.7 °F 71.2 °F 29.98 in ESE 1.0 mph 4.0 mph 50 % 0.00 in
15:51 93.0 °F 72.1 °F 29.98 in Calm   4.0 mph 51 % 0.00 in
15:56 93.4 °F 72.0 °F 29.98 in North 1.0 mph 4.0 mph 50 % 0.00 in
16:01 93.4 °F 70.7 °F 29.98 in Calm   4.0 mph 48 % 0.00 in
16:06 93.7 °F 71.1 °F 29.98 in East 1.0 mph 3.0 mph 48 % 0.00 in
16:11 93.4 °F 72.0 °F 29.98 in Calm   5.0 mph 50 % 0.00 in
16:16 93.2 °F 70.5 °F 29.98 in ENE 1.0 mph 5.0 mph 48 % 0.00 in
16:21 92.5 °F 70.5 °F 29.98 in ENE 1.0 mph 5.0 mph 49 % 0.00 in
16:26 91.6 °F 70.3 °F 29.98 in NNW 1.0 mph 4.0 mph 50 % 0.00 in
16:31 91.2 °F 70.5 °F 29.98 in Calm   4.0 mph 51 % 0.00 in
16:36 90.9 °F 69.1 °F 29.98 in Calm   3.0 mph 49 % 0.00 in
16:41 90.9 °F 69.6 °F 29.99 in Calm   3.0 mph 50 % 0.00 in
16:46 90.3 °F 69.1 °F 29.98 in Calm   3.0 mph 50 % 0.00 in
16:51 90.1 °F 70.7 °F 29.98 in East 1.0 mph 3.0 mph 53 % 0.00 in
16:56 90.0 °F 71.1 °F 29.98 in SE 2.0 mph 3.0 mph 54 % 0.00 in
17:01 90.0 °F 70.0 °F 29.98 in SE 1.0 mph 4.0 mph 52 % 0.00 in
17:06 90.3 °F 70.3 °F 29.98 in SE 2.0 mph 5.0 mph 52 % 0.00 in
17:11 90.9 °F 68.5 °F 29.98 in SE 1.0 mph 5.0 mph 48 % 0.00 in
17:16 91.2 °F 70.0 °F 29.98 in SE 3.0 mph 6.0 mph 50 % 0.00 in
17:21 91.8 °F 71.1 °F 29.98 in NW 2.0 mph 6.0 mph 51 % 0.00 in
17:26 91.9 °F 71.2 °F 29.98 in NNW 1.0 mph 6.0 mph 51 % 0.00 in
17:31 91.8 °F 69.8 °F 29.98 in NNE 1.0 mph 5.0 mph 49 % 0.00 in
17:32 91.8 °F 69.8 °F 29.98 in Calm   5.0 mph 49 % 0.00 in
17:37 91.6 °F 69.8 °F 29.98 in NE 2.0 mph 5.0 mph 49 % 0.00 in
17:42 91.6 °F 70.3 °F 29.98 in SE 3.0 mph 5.0 mph 50 % 0.00 in
17:47 91.6 °F 70.3 °F 29.98 in ESE 2.0 mph 4.0 mph 50 % 0.00 in
17:53 91.6 °F 69.1 °F 29.99 in Calm   4.0 mph 48 % 0.00 in
17:58 91.9 °F 70.0 °F 29.98 in SE 3.0 mph 3.0 mph 49 % 0.00 in
18:03 91.8 °F 69.3 °F 29.99 in ENE 1.0 mph 4.0 mph 48 % 0.00 in
18:08 91.8 °F 69.8 °F 29.98 in ENE 5.0 mph 5.0 mph 49 % 0.00 in
18:13 91.4 °F 70.2 °F 29.98 in SE 2.0 mph 5.0 mph 50 % 0.00 in
18:18 91.0 °F 69.3 °F 29.98 in SSE 2.0 mph 5.0 mph 49 % 0.00 in
18:23 90.9 °F 69.1 °F 29.99 in Calm   5.0 mph 49 % 0.00 in
18:28 90.9 °F 70.9 °F 29.98 in Calm   5.0 mph 52 % 0.00 in
18:33 90.9 °F 70.9 °F 29.99 in ESE 1.0 mph 4.0 mph 52 % 0.00 in
18:38 90.7 °F 70.0 °F 29.99 in East 1.0 mph 4.0 mph 51 % 0.00 in
18:43 90.3 °F 69.8 °F 29.99 in East 2.0 mph 3.0 mph 51 % 0.00 in
18:48 90.1 °F 70.2 °F 29.99 in Calm   3.0 mph 52 % 0.00 in
18:53 90.0 °F 70.0 °F 29.99 in East 1.0 mph 3.0 mph 52 % 0.00 in
18:58 89.8 °F 69.8 °F 29.99 in Calm   3.0 mph 52 % 0.00 in
19:03 89.4 °F 70.0 °F 29.99 in Calm   4.0 mph 53 % 0.00 in
19:08 89.2 °F 69.8 °F 29.99 in Calm   4.0 mph 53 % 0.00 in
19:13 88.9 °F 70.2 °F 29.99 in Calm   4.0 mph 54 % 0.00 in
19:18 88.3 °F 70.2 °F 29.99 in Calm   2.0 mph 55 % 0.00 in
19:23 88.0 °F 69.8 °F 29.99 in ESE 1.0 mph 3.0 mph 55 % 0.00 in
19:28 87.4 °F 69.8 °F 29.99 in ESE 1.0 mph 3.0 mph 56 % 0.00 in
19:33 87.3 °F 70.2 °F 29.99 in Calm   3.0 mph 57 % 0.00 in
19:38 86.7 °F 69.6 °F 29.99 in East 1.0 mph 2.0 mph 57 % 0.00 in
19:43 86.5 °F 70.0 °F 29.99 in East 1.0 mph 2.0 mph 58 % 0.00 in
19:48 86.2 °F 70.2 °F 29.99 in Calm   2.0 mph 59 % 0.00 in
19:53 85.6 °F 70.2 °F 29.99 in Calm   2.0 mph 60 % 0.00 in
19:58 85.5 °F 70.5 °F 29.99 in East 1.0 mph 2.0 mph 61 % 0.00 in
20:03 85.3 °F 71.2 °F 29.99 in Calm   2.0 mph 63 % 0.00 in
20:08 85.3 °F 72.1 °F 30.00 in SSE 2.0 mph 3.0 mph 65 % 0.00 in
20:13 85.3 °F 71.8 °F 30.00 in SSE 2.0 mph 5.0 mph 64 % 0.00 in
20:18 85.1 °F 72.0 °F 30.00 in ESE 2.0 mph 5.0 mph 65 % 0.00 in
20:23 84.9 °F 71.8 °F 30.00 in Calm   5.0 mph 65 % 0.00 in
20:28 84.6 °F 72.3 °F 30.00 in ESE 1.0 mph 4.0 mph 67 % 0.00 in
20:33 84.4 °F 72.1 °F 30.01 in Calm   3.0 mph 67 % 0.00 in
20:38 84.2 °F 72.0 °F 30.01 in East 3.0 mph 3.0 mph 67 % 0.00 in
20:43 84.0 °F 72.0 °F 30.01 in ESE 2.0 mph 3.0 mph 67 % 0.00 in
20:48 84.0 °F 72.3 °F 30.01 in ESE 1.0 mph 3.0 mph 68 % 0.00 in
20:53 83.8 °F 72.1 °F 30.01 in East 2.0 mph 3.0 mph 68 % 0.00 in
20:59 83.7 °F 72.0 °F 30.01 in SE 1.0 mph 3.0 mph 68 % 0.00 in
21:04 83.5 °F 71.8 °F 30.02 in SSE 2.0 mph 4.0 mph 68 % 0.00 in
21:09 83.3 °F 71.6 °F 30.02 in ESE 1.0 mph 4.0 mph 68 % 0.00 in
21:14 83.1 °F 72.0 °F 30.02 in East 2.0 mph 4.0 mph 69 % 0.00 in
21:19 82.9 °F 71.8 °F 30.02 in Calm   3.0 mph 69 % 0.00 in
21:24 82.8 °F 71.6 °F 30.02 in Calm   2.0 mph 69 % 0.00 in
21:29 82.8 °F 71.6 °F 30.02 in Calm   2.0 mph 69 % 0.00 in
21:34 82.6 °F 71.8 °F 30.02 in Calm   2.0 mph 70 % 0.00 in
21:39 82.2 °F 72.0 °F 30.02 in Calm   2.0 mph 71 % 0.00 in
21:44 81.9 °F 71.6 °F 30.02 in Calm   1.0 mph 71 % 0.00 in
21:49 81.3 °F 71.4 °F 30.02 in Calm   1.0 mph 72 % 0.00 in
21:54 81.0 °F 72.0 °F 30.02 in Calm   1.0 mph 74 % 0.00 in
21:59 80.6 °F 72.0 °F 30.02 in Calm     75 % 0.00 in
22:04 80.4 °F 71.8 °F 30.02 in Calm   1.0 mph 75 % 0.00 in
22:09 80.4 °F 71.8 °F 30.02 in Calm   1.0 mph 75 % 0.00 in
22:15 80.2 °F 72.0 °F 30.02 in Calm   1.0 mph 76 % 0.00 in
22:19 80.1 °F 72.1 °F 30.02 in Calm   1.0 mph 77 % 0.00 in
22:20 80.1 °F 72.5 °F 30.02 in Calm     78 % 0.00 in
22:21 79.9 °F 72.3 °F 30.02 in Calm     78 % 0.00 in
22:23 79.9 °F 72.3 °F 30.02 in Calm     78 % 0.00 in
22:24 79.9 °F 72.3 °F 30.02 in Calm     78 % 0.00 in
22:26 79.7 °F 72.7 °F 30.02 in Calm     79 % 0.00 in
22:31 79.5 °F 72.5 °F 30.02 in Calm     79 % 0.00 in
22:36 79.3 °F 72.7 °F 30.02 in Calm     80 % 0.00 in
22:41 79.3 °F 73.0 °F 30.02 in Calm     81 % 0.00 in
22:46 79.3 °F 73.0 °F 30.02 in Calm     81 % 0.00 in
22:51 79.2 °F 73.2 °F 30.03 in Calm     82 % 0.00 in
22:56 79.2 °F 73.6 °F 30.03 in Calm   1.0 mph 83 % 0.00 in
23:01 79.0 °F 73.4 °F 30.03 in Calm   1.0 mph 83 % 0.00 in
23:06 78.8 °F 73.6 °F 30.03 in Calm   1.0 mph 84 % 0.00 in
23:11 78.6 °F 73.4 °F 30.03 in Calm     84 % 0.00 in
23:16 78.4 °F 73.6 °F 30.03 in Calm     85 % 0.00 in
23:21 78.4 °F 73.9 °F 30.03 in Calm     86 % 0.00 in
23:26 78.4 °F 73.9 °F 30.03 in Calm     86 % 0.00 in
23:32 78.4 °F 73.9 °F 30.02 in Calm     86 % 0.00 in
23:37 78.3 °F 73.8 °F 30.02 in Calm     86 % 0.00 in
23:38 78.3 °F 73.8 °F 30.02 in Calm     86 % 0.00 in
23:43 78.1 °F 73.6 °F 30.02 in Calm     86 % 0.00 in
23:48 77.9 °F 73.4 °F 30.02 in Calm     86 % 0.00 in
23:53 77.9 °F 73.8 °F 30.02 in Calm     87 % 0.00 in
23:58 77.7 °F 73.6 °F 30.02 in Calm     87 % 0.00 in
Spring, Texas: Villages of Bridgestone
Compliments of Weather Underground - 2.75 mb

Script developed by  Jim McMurry - jmcmurry@mwt.net Adapted for the template by  Wim van der Kuil - Leuven-Template.eu

You find our weather info also at:

UK Metoffice

WeatherCloud

Weather Underground

Mid-South Weather Network

AWEKAS

Citizen Weather Observer Program (CWOP)

HAMweather, WeatherForYou, PWS Weather

Equipment we use:

Weather-station
Davis Vantage Vue

Weather-program
Meteohub

Weather-server
Debian 7.9 x86 (Guest)

Provider
DreamHost

Davis Vantage Vue

Meteohub

Debian 7.9 x86 (Guest)

DreamHost